Wind_Speed
14 13 13 13 13 13 13 14 14 14 14 13 13 13 13 14 14 14 15 15 15 16 16 17 18 18 18 19 20 20 21 21 21 22 22 23 24 24 25 26 26 26 27
13 14 13 13 14 14 14 14 14 14 14 13 13 13 13 13 13 14 15 15 16 16 17 17 18 18 19 19 19 20 20 21 21 21 22 22 23 24 25 26 26 26 26
14 13 13 14 14 14 14 14 14 14 13 13 13 13 13 14 14 15 15 15 16 16 17 17 18 18 18 19 20 21 21 21 22 22 22 23 23 24 24 24 25 26 26
14 14 14 14 14 14 14 15 14 14 13 13 13 14 14 14 15 15 16 16 16 17 16 17 18 18 18 19 20 21 21 22 23 23 23 23 23 24 24 24 24 25 26
15 15 15 15 15 15 15 15 14 14 14 14 14 14 15 16 16 17 17 17 17 17 16 17 18 19 19 19 20 21 21 22 22 23 23 24 24 24 24 24 24 25 25
15 15 15 15 15 15 15 15 14 14 14 14 15 15 15 16 17 17 17 17 17 17 18 18 19 19 20 20 20 21 21 22 23 23 24 24 24 24 24 24 24 25 25
16 16 16 15 15 15 15 15 15 15 15 15 16 16 16 17 17 17 17 17 17 17 18 18 19 19 19 20 20 21 21 21 22 22 23 23 23 24 24 24 24 25 25
16 16 16 16 15 15 15 15 15 15 15 16 17 17 17 17 17 17 17 17 17 18 18 18 19 19 19 20 20 21 21 21 21 22 22 22 23 23 23 23 24 25 25
16 17 17 17 16 16 15 15 16 16 16 17 17 17 18 18 18 18 18 17 17 18 18 18 19 19 19 19 20 20 21 22 22 22 22 23 24 25 24 24 24 24 24
17 17 17 17 17 16 16 16 17 17 17 17 17 18 18 18 18 18 18 18 18 19 19 19 19 20 20 20 20 20 21 22 22 22 22 23 24 25 25 25 25 24 24
18 18 17 17 17 17 17 17 17 17 17 17 17 18 18 18 19 19 19 20 20 20 20 20 20 19 20 20 20 20 21 21 21 21 21 22 23 24 24 24 24 23 23
18 18 18 18 18 17 17 18 18 18 18 18 19 19 20 19 19 20 20 20 20 20 20 20 19 19 20 20 20 20 20 20 20 20 21 22 23 23 22 22 22 22 22
19 19 18 18 18 18 18 18 19 19 19 19 20 20 20 20 20 20 21 21 21 20 20 19 19 19 19 19 20 21 21 20 21 21 21 22 23 23 21 21 22 22 22
20 20 19 19 19 19 19 19 19 20 20 20 20 20 20 20 21 20 21 21 21 20 19 19 19 19 19 19 20 21 21 21 22 22 22 23 24 23 22 22 22 23 23
20 20 20 20 20 20 20 19 20 20 21 22 21 21 21 20 20 20 20 20 19 19 18 18 18 18 19 19 20 20 21 21 22 23 23 23 22 21 21 22 22 22 22
21 22 21 21 21 20 20 20 21 21 21 22 21 21 21 20 20 20 20 19 19 18 17 17 17 17 17 18 18 19 19 20 21 21 22 22 21 21 21 22 22 23 23
23 23 23 23 23 22 21 22 22 22 22 21 21 21 20 20 20 20 20 19 18 18 17 18 17 17 17 17 18 18 18 19 20 20 20 20 20 21 21 22 22 23 24
24 24 24 24 24 23 23 23 23 23 22 22 21 21 21 20 19 20 20 18 18 17 17 17 16 17 17 18 18 19 19 20 20 20 20 20 21 21 22 22 22 23 23
24 24 25 24 24 23 23 23 23 23 23 22 21 21 21 20 20 20 19 18 18 17 17 17 17 17 17 18 19 19 20 21 20 21 21 22 22 23 22 22 22 22 23
25 25 25 25 24 24 23 23 23 23 23 22 22 21 21 20 20 20 19 19 19 18 18 18 18 18 18 19 19 20 20 20 21 21 22 22 23 23 23 22 22 22 22
25 25 25 24 24 24 23 23 23 23 22 22 22 21 20 19 19 19 19 19 19 18 17 17 17 18 19 19 20 20 20 21 21 22 23 23 23 22 22 22 21 21 21
25 25 24 24 24 24 23 23 22 21 21 21 21 19 19 18 18 18 18 18 17 16 16 17 18 18 20 20 20 20 21 21 22 22 22 22 22 22 21 21 20 20 19
24 23 23 23 22 22 22 21 21 21 20 20 19 19 19 18 18 18 18 17 16 16 16 17 18 19 19 20 19 20 20 20 21 21 21 21 21 21 21 20 19 19 19
23 23 22 22 22 22 21 21 20 20 20 20 19 19 19 19 19 18 17 16 16 16 17 17 17 18 18 19 18 19 19 20 20 20 21 22 22 21 20 19 19 19 19
23 23 22 22 22 22 21 20 19 19 19 19 18 18 18 18 18 17 16 16 16 16 16 17 17 18 18 19 19 19 20 21 21 21 21 22 22 21 20 19 19 19 19
23 23 23 23 22 21 21 21 20 19 19 19 18 18 17 17 17 16 16 16 16 16 17 17 17 18 19 19 19 20 21 21 21 21 21 21 20 20 19 19 19 18 18
Wind_Direction
305 302 299 298 297 300 304 304 303 301 299 294 291 292 293 293 292 290 287 285 281 282 282 279 279 278 277 275 274 275 275 276 276 275 274 272 272 272 271 269 268 267 265
306 303 304 302 301 300 301 302 302 299 298 294 291 292 293 294 294 292 289 287 283 283 283 281 281 281 278 277 275 275 276 277 278 278 277 276 275 274 273 271 269 268 266
305 303 303 302 302 301 301 301 300 297 296 294 293 293 292 293 293 292 290 287 285 283 283 283 283 285 280 276 275 277 278 278 279 279 278 278 277 276 274 272 271 268 267
307 304 301 300 301 302 301 302 302 298 295 293 291 292 293 292 292 293 292 289 287 284 283 283 284 285 284 282 281 281 280 279 279 279 280 278 277 276 274 273 272 269 268
305 303 300 301 299 300 300 300 300 299 296 291 290 291 293 293 293 293 292 289 288 287 287 287 287 286 286 285 284 283 282 282 281 281 282 280 279 276 275 274 272 270 269
302 301 301 302 300 299 301 301 299 298 296 293 292 294 294 294 294 293 293 291 289 289 290 290 290 289 287 286 285 284 284 284 284 283 282 282 279 276 274 274 273 272 270
301 301 301 302 301 299 298 298 298 297 296 295 293 294 295 295 295 293 291 291 291 290 290 290 289 287 287 285 286 287 287 288 289 286 283 282 278 276 276 275 273 272 272
300 301 300 299 300 299 300 297 297 296 295 296 295 294 295 295 292 293 292 292 291 292 293 293 291 289 287 286 286 287 288 291 291 288 286 282 280 280 279 277 275 272 271
298 300 299 297 298 298 298 296 295 295 294 295 296 295 294 294 293 293 293 292 294 295 294 294 294 292 290 289 289 289 290 291 292 290 286 284 284 284 281 279 277 274 272
296 298 298 295 296 297 297 297 295 293 293 294 295 294 294 294 295 295 294 295 295 295 294 294 294 293 292 292 292 291 292 292 294 292 289 287 286 286 283 280 278 275 272
294 296 296 294 294 294 295 295 294 293 293 294 294 294 297 298 297 296 298 297 295 294 293 293 294 296 297 296 295 296 295 295 296 293 290 288 287 286 283 280 278 276 274
293 293 293 294 294 293 293 293 294 293 293 295 294 294 297 299 299 299 300 299 298 296 294 294 295 296 297 297 297 298 298 298 298 295 294 291 290 290 286 281 279 278 277
292 291 292 292 291 292 292 294 294 294 292 293 294 294 294 294 296 298 300 300 300 297 294 293 293 295 296 297 297 296 296 296 297 297 296 294 293 291 290 286 282 280 278
289 290 290 291 290 290 291 293 295 296 294 293 293 293 293 294 294 296 298 297 298 297 295 293 292 293 295 298 299 299 297 298 299 299 298 298 296 293 291 289 286 283 281
286 287 287 287 287 289 290 291 293 295 296 294 292 292 293 293 293 296 297 298 297 294 292 292 292 294 296 299 301 300 300 300 301 300 300 301 299 296 294 291 288 286 285
283 283 284 286 287 289 291 290 292 294 295 294 293 292 292 293 294 296 297 298 300 299 296 294 294 296 299 301 303 304 304 304 304 304 303 303 301 299 296 292 289 288 288
281 282 283 285 286 287 288 291 293 294 294 293 293 292 291 290 291 294 297 296 296 296 294 294 294 296 299 301 304 307 308 308 308 307 306 304 303 302 299 296 293 290 289
282 282 284 286 286 285 286 289 291 293 293 291 290 288 288 288 289 293 295 293 293 293 293 294 294 295 297 300 303 306 308 310 311 310 309 308 307 306 303 300 298 297 295
282 282 283 285 286 284 285 288 291 291 290 289 288 287 287 288 288 290 289 288 290 291 293 294 295 296 297 299 302 304 305 307 309 310 309 309 308 307 305 302 300 299 298
281 280 282 283 284 285 285 287 289 289 287 286 286 286 287 288 289 288 286 287 287 288 289 291 292 295 298 300 302 304 306 307 308 309 309 309 309 307 306 305 303 301 300
282 281 280 280 282 282 284 285 286 286 285 284 285 285 286 288 289 288 287 288 287 287 288 290 292 295 300 303 304 305 306 307 308 309 309 309 310 309 308 308 307 306 303
283 282 279 279 281 280 281 283 285 285 285 283 282 283 286 288 288 287 288 289 287 285 287 291 294 297 300 302 302 302 304 306 308 310 312 312 312 312 311 310 309 309 307
283 283 282 280 280 279 279 280 282 283 283 283 281 282 284 286 286 286 287 287 284 285 288 292 295 298 300 301 302 304 305 307 310 312 315 316 315 315 314 312 309 308 307
282 283 283 281 281 281 280 280 283 284 283 281 281 281 281 281 283 283 283 283 282 283 287 291 294 297 300 301 303 305 306 307 309 311 314 315 315 314 313 311 310 310 309
281 281 281 282 282 279 278 279 281 283 281 279 280 281 282 282 282 281 280 282 282 284 288 292 294 296 299 301 303 304 305 307 310 312 314 314 315 314 312 310 309 309 308
280 280 281 281 279 277 277 277 277 278 277 277 277 278 280 282 280 278 278 280 282 284 288 292 295 297 299 300 302 304 305 307 310 313 314 315 315 315 313 312 312 311 309
Height
5779 5778 5776 5775 5774 5773 5771 5770 5769 5767 5766 5765 5764 5763 5762 5761 5759 5758 5757 5756 5756 5755 5755 5755 5754 5754 5754 5754 5753 5753 5753 5753 5753 5753 5752 5752 5752 5752 5751 5751 5751 5751 5751
5777 5775 5774 5772 5771 5770 5768 5767 5766 5764 5763 5762 5760 5759 5758 5757 5756 5755 5753 5752 5752 5751 5750 5750 5749 5749 5748 5748 5748 5747 5747 5747 5747 5747 5746 5745 5745 5744 5744 5743 5743 5743 5743
5773 5772 5771 5769 5768 5766 5765 5763 5762 5761 5760 5758 5757 5756 5755 5754 5752 5751 5750 5749 5748 5747 5746 5745 5744 5743 5743 5742 5742 5742 5741 5741 5741 5740 5739 5738 5738 5737 5736 5736 5735 5735 5735
5770 5768 5767 5766 5764 5763 5761 5760 5758 5757 5756 5755 5754 5752 5751 5750 5749 5747 5746 5745 5744 5743 5741 5740 5740 5739 5738 5737 5736 5735 5735 5734 5734 5733 5732 5731 5730 5729 5729 5728 5727 5727 5727
5766 5765 5764 5762 5761 5759 5758 5756 5755 5753 5752 5751 5750 5749 5747 5746 5745 5743 5742 5741 5739 5738 5737 5736 5735 5734 5733 5732 5730 5730 5729 5728 5727 5726 5725 5724 5723 5722 5721 5720 5719 5719 5718
5763 5761 5760 5758 5757 5755 5754 5752 5751 5749 5748 5747 5746 5745 5744 5742 5741 5739 5738 5736 5735 5734 5732 5731 5730 5729 5727 5726 5725 5724 5723 5722 5720 5719 5718 5716 5715 5714 5713 5712 5711 5711 5711
5759 5757 5756 5754 5752 5751 5749 5748 5747 5746 5744 5743 5742 5741 5740 5738 5737 5735 5733 5732 5730 5729 5727 5726 5725 5723 5722 5720 5719 5718 5717 5715 5713 5712 5710 5709 5707 5706 5705 5704 5703 5703 5703
5754 5753 5752 5750 5748 5747 5745 5744 5743 5741 5740 5739 5738 5737 5735 5734 5732 5730 5729 5727 5725 5724 5722 5721 5719 5717 5716 5715 5713 5712 5710 5708 5707 5705 5703 5702 5700 5699 5697 5697 5695 5695 5695
5750 5748 5747 5745 5744 5742 5741 5740 5738 5737 5736 5735 5734 5732 5731 5729 5727 5726 5724 5722 5721 5719 5717 5715 5713 5712 5710 5709 5707 5706 5704 5702 5699 5697 5696 5694 5693 5691 5689 5689 5688 5687 5687
5745 5744 5742 5741 5739 5738 5737 5735 5734 5733 5731 5730 5729 5727 5726 5724 5722 5721 5719 5717 5715 5713 5712 5710 5708 5706 5704 5702 5701 5699 5697 5695 5693 5691 5689 5687 5685 5683 5681 5680 5680 5679 5679
5740 5738 5737 5736 5734 5733 5732 5731 5729 5728 5726 5725 5724 5722 5721 5719 5717 5715 5714 5712 5709 5707 5706 5704 5702 5700 5698 5696 5694 5692 5690 5688 5686 5684 5682 5680 5678 5676 5674 5673 5672 5671 5671
5734 5733 5732 5731 5729 5728 5727 5725 5724 5722 5721 5720 5718 5717 5715 5713 5712 5710 5708 5706 5704 5702 5700 5698 5696 5694 5692 5690 5688 5686 5684 5682 5680 5677 5675 5673 5671 5669 5667 5665 5664 5663 5663
5729 5727 5726 5725 5724 5723 5721 5720 5719 5717 5715 5714 5712 5711 5709 5707 5706 5704 5702 5700 5698 5696 5694 5692 5690 5688 5687 5685 5683 5681 5678 5676 5674 5671 5669 5666 5664 5662 5659 5658 5657 5656 5655
5723 5722 5720 5719 5718 5717 5716 5714 5713 5711 5710 5708 5706 5705 5703 5701 5700 5698 5696 5694 5692 5690 5688 5687 5685 5683 5681 5679 5677 5675 5672 5670 5667 5665 5662 5660 5657 5655 5653 5651 5650 5649 5648
5717 5716 5714 5713 5712 5711 5710 5708 5707 5705 5703 5702 5700 5698 5697 5696 5694 5692 5690 5688 5686 5684 5682 5681 5679 5678 5676 5674 5671 5669 5666 5664 5661 5658 5656 5653 5650 5648 5646 5644 5643 5641 5640
5711 5710 5709 5707 5706 5705 5704 5702 5700 5699 5697 5696 5694 5692 5691 5689 5688 5686 5684 5683 5681 5679 5677 5676 5674 5672 5671 5668 5666 5663 5661 5658 5655 5652 5649 5646 5644 5641 5639 5637 5636 5634 5633
5704 5703 5702 5701 5700 5699 5697 5696 5694 5693 5691 5689 5688 5686 5685 5683 5682 5681 5679 5677 5675 5673 5672 5670 5669 5667 5666 5663 5661 5658 5656 5653 5650 5647 5644 5641 5638 5635 5633 5630 5628 5627 5625
5696 5695 5694 5693 5692 5691 5690 5689 5688 5686 5685 5683 5682 5680 5679 5677 5676 5675 5673 5672 5670 5668 5667 5665 5664 5662 5660 5658 5656 5653 5651 5648 5645 5641 5638 5635 5632 5629 5626 5624 5621 5619 5617
5689 5688 5687 5685 5684 5683 5683 5682 5681 5679 5678 5677 5675 5674 5673 5671 5670 5669 5667 5666 5665 5663 5661 5660 5658 5657 5655 5653 5650 5648 5645 5642 5639 5636 5633 5630 5627 5623 5620 5617 5615 5612 5609
5680 5679 5678 5678 5677 5676 5675 5675 5674 5672 5671 5670 5669 5668 5666 5665 5664 5663 5661 5660 5659 5657 5656 5654 5653 5651 5649 5647 5644 5642 5639 5636 5634 5631 5627 5624 5621 5617 5614 5611 5608 5605 5602
5672 5670 5670 5669 5669 5669 5668 5667 5666 5665 5664 5663 5662 5661 5660 5658 5657 5656 5655 5654 5652 5651 5650 5648 5647 5645 5644 5641 5639 5636 5634 5631 5628 5625 5621 5618 5614 5611 5608 5604 5602 5599 5596
5664 5662 5662 5662 5661 5661 5660 5660 5659 5658 5657 5656 5655 5654 5653 5652 5651 5650 5648 5647 5646 5645 5644 5643 5641 5640 5638 5636 5633 5631 5628 5625 5622 5619 5615 5612 5608 5605 5602 5599 5596 5593 5590
5656 5655 5654 5654 5653 5653 5653 5652 5652 5651 5650 5649 5649 5648 5647 5646 5645 5644 5643 5641 5640 5640 5639 5637 5636 5634 5632 5630 5627 5625 5622 5619 5616 5613 5610 5606 5603 5599 5596 5593 5590 5587 5585
5649 5648 5647 5646 5646 5646 5645 5645 5645 5644 5644 5643 5642 5642 5641 5640 5639 5638 5637 5636 5635 5634 5633 5632 5631 5629 5627 5624 5622 5619 5617 5614 5611 5607 5604 5601 5597 5594 5591 5588 5585 5582 5579
5642 5641 5640 5639 5639 5639 5639 5638 5638 5638 5637 5637 5636 5636 5635 5634 5633 5632 5631 5630 5629 5629 5628 5627 5625 5623 5621 5619 5616 5614 5611 5609 5605 5602 5599 5595 5592 5589 5586 5583 5580 5577 5575
5634 5633 5633 5632 5632 5632 5632 5632 5631 5631 5631 5630 5630 5630 5629 5628 5627 5626 5626 5625 5624 5624 5622 5621 5620 5618 5616 5614 5611 5609 5606 5603 5600 5596 5593 5590 5587 5584 5581 5578 5575 5573 5570